Printer-friendly version

IAU Minor Planet Center

Minor Planet Center

MPEC 2000-C28: 2000 CN33

The following Minor Planet Electronic Circular may be linked-to from your own Web pages, but must not otherwise be redistributed electronically.


Read MPEC 2000-C27 Read MPEC 2000-C29


M.P.E.C. 2000-C28                                Issued 2000 Feb. 6, 17:20 UT

     The Minor Planet Electronic Circulars contain information on unusual
         minor planets and routine data on comets.  They are published
   on behalf of Commission 20 of the International Astronomical Union by the
          Minor Planet Center, Smithsonian Astrophysical Observatory,
                          Cambridge, MA 02138, U.S.A.

             Prepared using the Tamkin Foundation Computer Network

             BMARSDEN@CFA.HARVARD.EDU or GWILLIAMS@CFA.HARVARD.EDU
          URL http://cfa-www.harvard.edu/iau/mpc.html  ISSN 1523-6714

                                   2000 CN33

Observations:
     K00C33N* C2000 02 03.37282 12 28 16.37 +20 42 42.7          16.7        704
     K00C33N  C2000 02 03.38711 12 28 20.97 +20 44 02.2          16.8        704
     K00C33N  C2000 02 03.40136 12 28 25.57 +20 45 21.7          17.2        704
     K00C33N  C2000 02 03.41558 12 28 30.15 +20 46 40.1          17.9        704
     K00C33N  C2000 02 03.42984 12 28 34.73 +20 47 59.4          17.3        704
     K00C33N  C2000 02 03.98727 12 31 44.55 +21 38 05.3          16.8 R      046
     K00C33N  C2000 02 03.98868 12 31 45.00 +21 38 12.7                      046
     K00C33N  C2000 02 03.98948 12 31 45.22 +21 38 17.1          17.1 R      046
     K00C33N  C2000 02 03.99027 12 31 45.49 +21 38 21.4                      046
     K00C33N  C2000 02 03.99093 12 31 45.69 +21 38 24.9          16.9 R      046
     K00C33N  C2000 02 04.00579 12 31 50.44 +21 39 44.4                      557
     K00C33N  C2000 02 04.00672 12 31 50.73 +21 39 49.4                      557
     K00C33N  C2000 02 04.00766 12 31 51.01 +21 39 54.4                      557
     K00C33N  C2000 02 04.29697 12 33 27.74 +22 05 33.6          17.1        704
     K00C33N  C2000 02 04.31141 12 33 32.28 +22 06 50.5          17.5        704
     K00C33N  C2000 02 04.32585 12 33 36.83 +22 08 07.3          17.5        704
     K00C33N  C2000 02 04.34020 12 33 41.27 +22 09 23.9          17.4        704
     K00C33N  C2000 02 04.34941 12 33 44.38 +22 10 13.2          16.9 V      651
     K00C33N  C2000 02 04.35061 12 33 44.77 +22 10 19.6          16.9 V      651
     K00C33N  C2000 02 04.35238 12 33 45.30 +22 10 29.0          16.9 V      651
     K00C33N  C2000 02 04.35452 12 33 45.72 +22 10 38.8          17.5        704
     K00C33N  C2000 02 04.62252 12 35 13.13 +22 34 41.7          16.8 R      422
     K00C33N  C2000 02 04.62451 12 35 13.73 +22 34 52.2          16.7 R      422
     K00C33N  C2000 02 04.62553 12 35 14.07 +22 34 57.9          16.8 R      422
     K00C33N  C2000 02 04.95677 12 37 00.37 +23 01 55.8          16.8 V      596
     K00C33N  C2000 02 04.95810 12 37 00.80 +23 02 02.2                      596
     K00C33N  C2000 02 04.95992 12 37 01.33 +23 02 12.0                      596
     K00C33N  C2000 02 05.33743 12 38 59.61 +23 33 42.3          17.4        704
     K00C33N  C2000 02 05.35225 12 39 03.95 +23 34 55.6          18.3        704
     K00C33N  C2000 02 05.36696 12 39 08.30 +23 36 09.1          18.1        704
     K00C33N  C2000 02 05.49223 12 39 44.99 +23 46 09.3          17.3 V      681
     K00C33N  C2000 02 05.49360 12 39 45.46 +23 46 15.4          17.4 V      681
     K00C33N  C2000 02 05.49808 12 39 46.73 +23 46 37.3          17.3 V      681
     K00C33N  C2000 02 05.50189 12 39 47.86 +23 46 56.1          17.6 V      681
     K00C33N  C2000 02 05.66804 12 40 41.38 +24 00 31.9          17.0 V      402
     K00C33N  C2000 02 05.66929 12 40 41.78 +24 00 38.1                      402
     K00C33N  C2000 02 05.66949 12 40 41.18 +24 01 36.3          17.0 R      422
     K00C33N  C2000 02 05.67005 12 40 41.31 +24 01 39.0          17.1 R      422
     K00C33N  C2000 02 05.67056 12 40 42.10 +24 00 44.3                      402
     K00C33N  C2000 02 05.67061 12 40 41.46 +24 01 41.5          17.0 R      422
     K00C33N  C2000 02 05.67182 12 40 42.49 +24 00 49.9                      402
     K00C33N  C2000 02 05.97788 12 42 15.48 +24 24 59.2                      611
     K00C33N  C2000 02 05.98050 12 42 16.21 +24 25 09.1                      611
     K00C33N  C2000 02 06.04940 12 42 36.11 +24 30 41.6          17.4 R      151
     K00C33N  C2000 02 06.05354 12 42 37.27 +24 31 01.1          17.0 R      151
     K00C33N  C2000 02 06.05670 12 42 38.06 +24 31 16.6          17.0 R      151
     K00C33N  C2000 02 06.06018 12 42 39.12 +24 31 33.1          17.6 R      151
     K00C33N  C2000 02 06.06735 12 42 41.29 +24 32 07.4          17.3 R      151
     K00C33N  C2000 02 06.07943 12 42 44.60 +24 33 02.6          17.5 R      151
     K00C33N  C2000 02 06.22088 12 43 24.32 +24 44 07.1          16.8 V      104

Observer details:
046 Klet.  Observers M. Tichy, Z. Moravec.  0.57-m f/5.2 reflector + CCD.
104 San Marcello Pistoiese.  Observers L. Tesi, A. Boattini, M. Tombelli.
    Measurers G. Forti, L. Tesi, A. Boattini, M. Tombelli.  0.40-m f/5
    reflector + CCD.
151 Eschenberg Observatory, Winterthur.  Observer M. Griesser.  0.25-m f/8.0
    reflector + CCD.
402 Dynic Astronomical Observatory.  Observer A. Sugie.  0.60-m f/3.7 reflector
    + CCD.
422 Loomberah.  Observer G. J. Garradd.  0.45-m f/5.4 reflector + CCD.
557 Ondrejov.  Observers P. Pravec, P. Kusnirak.  0.65-m f/3.6 reflector + CCD.
596 Colleverde di Guidonia.  Observer V. S. Casulli.  0.40-m f/2.95 reflector
    + CCD.
611 Starkenburg.  Observers M. Busch, A. Seib, R. Stoss.  0.45-m f/4.4
    reflector + CCD.
651 Grasslands Observatory, Tucson.  Observer J. E. McGaha.  0.62-m f/5.1
    reflector + CCD.
681 Calgary.  Observer G. W. Billings.  0.36-m f/7 Schmidt-Cassegrain + CCD.
704 Lincoln Laboratory ETS, New Mexico.  Observers M. Blythe, F. Shelly,
    M. Bezpalko, M. Elowitz, R. Huber.  Measurers J. Stuart, H. Viggh,
    R. Sayer, J. B. Evans.  1.0-m f/2.15 reflector + CCD.

Orbital elements:
2000 CN33
Epoch 2000 Jan. 17.0 TT = JDT 2451560.5                 Williams
M 359.80735              (2000.0)            P               Q
n   0.23514926     Peri.  351.49970     -0.52320078     -0.81946847
a   2.5996027      Node   129.68623     +0.79867393     -0.56726079
e   0.5872971      Incl.   17.69843     +0.29728925     +0.08177173
P   4.19           H   19.4           G   0.15
From 50 observations 2000 Feb. 3-6.

Ephemeris:
2000 CN33                a,e,i = 2.60, 0.59, 18                  q = 1.0729
Date    TT    R. A. (2000) Decl.     Delta      r     Elong.  Phase     V
2000 01 27    11 38.66   +07 00.9    0.131    1.079   133.9    41.1    16.8
2000 02 01    12 13.89   +16 49.1    0.144    1.088   132.7    41.7    17.0
2000 02 06    12 42.33   +24 27.1    0.163    1.100   131.1    42.5    17.3
2000 02 11    13 04.16   +30 04.9    0.187    1.116   129.7    42.9    17.7
2000 02 16    13 20.18   +34 10.2    0.214    1.134   129.0    42.6    18.0
2000 02 21    13 31.33   +37 08.4    0.242    1.156   128.8    41.8    18.3
2000 02 26    13 38.42   +39 17.6    0.272    1.180   129.0    40.7    18.5
2000 03 02    13 42.18   +40 49.4    0.303    1.207   129.5    39.3    18.8
2000 03 07    13 43.27   +41 50.5    0.335    1.235   130.2    37.9    19.0
2000 03 12    13 42.30   +42 25.3    0.368    1.266   131.0    36.4    19.2
2000 03 17    13 39.87   +42 36.6    0.402    1.298   131.7    34.9    19.4
2000 03 22    13 36.49   +42 27.2    0.438    1.331   132.3    33.6    19.6
2000 03 27    13 32.58   +41 59.2    0.475    1.366   132.8    32.4    19.8

2000 04 06    13 24.60   +40 15.5    0.555    1.438   132.9    30.6    20.2
2000 04 16    13 18.21   +37 41.7    0.645    1.512   131.9    29.6    20.6
2000 04 26    13 14.45   +34 35.6    0.744    1.589   129.8    29.1    21.0
2000 05 06    13 13.54   +31 11.6    0.854    1.666   126.6    29.1    21.4
2000 05 16    13 15.33   +27 40.5    0.976    1.743   122.6    29.2    21.8
2000 05 26    13 19.43   +24 10.7    1.108    1.820   118.2    29.4    22.2

Gareth V. Williams           (C) Copyright 2000 MPC           M.P.E.C. 2000-C28

Read MPEC 2000-C27 Read MPEC 2000-C29


Our Web policy. Index to the CBAT/MPC/ICQ pages.


Valid HTML 4.01!